{"data":{"norad_id":62134,"intl_designator":"2024-222W","name":"STARLINK-32546","alt_names":[],"object_type":"PAYLOAD","status":"ACTIVE","operator":null,"country":"US","launch_date":"2024-11-27","launch_site_code":"AFETR","launch_vehicle":null,"mission":null,"orbit_class":"UNKNOWN","rcs_meters":null,"size_class":null,"mass_kg":null,"dimensions":null,"purposes":["comms"],"wikipedia_slug":null,"has_3d_model":false,"image_url":null,"decayed_at":null,"tle_current":{"epoch":"2026-05-25T00:57:49.499136Z","epoch_age_seconds":67756,"freshness":"FRESH","line1":"1 62134U 24222W   26145.04015624  .00013991  00000+0  51705-3 0  9991","line2":"2 62134  42.9997  61.7206 0000560 250.2120 109.8671 15.27574481 84359","mean_motion":15.27574481,"eccentricity":5.6e-5,"inclination_deg":42.9997,"raan_deg":61.7206,"arg_perigee_deg":250.212,"mean_anomaly_deg":109.8671,"bstar":0.00051705,"rev_number":8435,"period_min":94.267089291602,"perigee_km":482.68139461403,"apogee_km":483.44984930769,"semimajor_km":6861.2026219609,"source":"CELESTRAK","updated_at":"2026-05-25T13:38:19.567314Z"}}}